Notices

What's New in latest Release from April 7th, 2021:

- Updated Glossary, including Speed of Maximum Gust, and Total Hourly Precipitation

- Updated national and regional climate services offices contacts and prices information

- Addition of station inventory lists for 1981-2010, 1971-2000, and 1961-1990 Normals.

If you haven't already, please take our survey and provide feedback about our website: https://eccc.sondage-survey.ca/f/LanguageSelection.aspx?s=442ca660-fcf1-47c0-95a9-59707d6fd709

Hourly Data Report for October 01, 2006

TORONTO CITY
ONTARIO

43°40'00.000" N
79°24'00.000" W
112.50 m
6158355
71508
XTO

Download Data

Hourly Data (October 2006)
Hourly Data Report for October 1, 2006
TIME
LST
Temp Definition
°C
Dew Point Definition
°C
Rel Hum Definition
%
Precip. Amount Definition
mm

Wind Dir Definition
10's deg

Wind Spd Definition
km/h
Visibility Definition
km
Stn Press Definition
kPa
Hmdx Definition


Wind Chill Definition


Weather Definition


00:00 12.5 11.6 94   LegendMM LegendMM   99.65     LegendNANA
01:00 12.9 12.0 94   LegendMM LegendMM   99.61     LegendNANA
02:00 12.3 11.5 95   LegendMM LegendMM   99.61     LegendNANA
03:00 12.1 11.7 97   LegendMM LegendMM   99.61     LegendNANA
04:00 12.0 11.7 98   LegendMM LegendMM   99.66     LegendNANA
05:00 11.9 11.7 99   LegendMM LegendMM   99.75     LegendNANA
06:00 11.3 11.0 98   LegendMM LegendMM   99.82     LegendNANA
07:00 11.5 11.1 97   LegendMM LegendMM   99.89     LegendNANA
08:00 12.0 11.5 97   LegendMM LegendMM   99.97     LegendNANA
09:00 13.0 12.2 95   LegendMM LegendMM   100.05     LegendNANA
10:00 14.5 11.7 83   LegendMM LegendMM   100.10     LegendNANA
11:00 15.8 11.4 75   LegendMM LegendMM   100.11     LegendNANA
12:00 16.7 11.3 70   LegendMM LegendMM   100.13     LegendNANA
13:00 14.1 12.1 88   LegendMM LegendMM   100.15     LegendNANA
14:00 16.3 11.3 72   LegendMM LegendMM   100.16     LegendNANA
15:00 16.2 11.2 72   LegendMM LegendMM   100.21     LegendNANA
16:00 16.7 10.5 67   LegendMM LegendMM   100.27     LegendNANA
17:00 15.9 8.4 61   LegendMM LegendMM   100.33     LegendNANA
18:00 15.3 7.8 61   LegendMM LegendMM   100.41     LegendNANA
19:00 14.8 8.9 68   LegendMM LegendMM   100.48     LegendNANA
20:00 13.3 8.8 74   LegendMM LegendMM   100.55     LegendNANA
21:00 12.4 7.9 74   LegendMM LegendMM   100.60     LegendNANA
22:00 10.6 7.3 80   LegendMM LegendMM   100.64     LegendNANA
23:00 9.5 7.3 86   LegendMM LegendMM   100.66     LegendNANA

Notes on Data Quality.

Legend

  • E = Estimated
  • M = Missing
  • NA = Not Available*
  • [empty] = Indicates an unobserved value
Date modified: